Home   Weather   Isla de Aves   Past weeks
Flag for Venezuela

Past Weather in Isla de Aves, Venezuela — Yesterday and Last 2 Weeks

Currently: 68 °F. Mild. (Weather station: Caracas / Maiquetia Aerop. Intl. Simon Bolivar, Venezuela). See more current weather

Past Weather in Isla de Aves — Graph

°F

Isla de Aves Temperature Yesterday

Maximum temperature yesterday: 86 °F (at 12:00 pm)
Minimum temperature yesterday: 70 °F (at 6:03 am)
Average temperature yesterday: 77 °F

High & Low Weather Summary for the Past Weeks

 TemperatureHumidityPressure
High93 °F (Feb 15, 4:00 pm)94% (Feb 15, 7:03 am)30.07 "Hg (Feb 15, 7:03 am)
Low68 °F (Feb 22, 8:03 am)49% (Feb 22, 10:03 am)29.83 "Hg (Feb 16, 5:03 pm)
Average79 °F76%29.96 "Hg
* Reported Feb 13 9:00 am — Feb 28 7:03 am, Isla de Aves. Weather by CustomWeather, © 2024

Note: Actual official high and low records may vary slightly from our data, if they occured in-between our weather recording intervals... More about our weather records

Isla de Aves Weather History for the Previous 24 Hours

Scroll right to see more
 ConditionsComfort  
Time TempWeatherWind HumidityBarometerVisibility
7:03 am
Wed, Feb 28
70 °FMild.3 mph69%29.95 "HgN/A
7:00 am75 °FPassing clouds.1 mph89%29.95 "HgN/A
6:03 am72 °FMild.3 mph69%29.92 "HgN/A
5:03 am72 °FMild.3 mph65%29.92 "HgN/A
5:00 am73 °FPassing clouds.1 mph89%29.95 "HgN/A
4:03 am70 °FMild.3 mph69%29.95 "HgN/A
3:03 am72 °FMild.5 mph65%29.95 "HgN/A
3:00 am75 °FPassing clouds.1 mph89%29.98 "HgN/A
2:03 am72 °FMild.3 mph69%29.98 "HgN/A
1:03 am73 °FMild.3 mph69%30.01 "HgN/A
1:00 am77 °FPassing clouds.No wind89%29.98 "HgN/A
12:03 am75 °FMild.6 mph69%30.01 "HgN/A
12:00 am77 °FClear.1 mph89%29.95 "Hg10 mi
11:03 pm
Tue, Feb 27
77 °FWarm.7 mph69%30.01 "HgN/A
10:03 pm77 °FWarm.9 mph74%29.98 "HgN/A
10:00 pm79 °FClear.2 mph84%29.95 "Hg10 mi
9:03 pm77 °FWarm.10 mph79%29.98 "HgN/A
9:00 pm81 °FPassing clouds.3 mph79%29.95 "HgN/A
8:03 pm77 °FWarm.9 mph83%29.95 "HgN/A
7:03 pm79 °FWarm.12 mph79%29.92 "HgN/A
6:03 pm81 °FWarm.12 mph74%29.92 "HgN/A
6:00 pm82 °FScattered clouds.5 mph74%29.89 "HgN/A
5:03 pm82 °FWarm.14 mph70%29.92 "HgN/A
4:03 pm82 °FWarm.13 mph70%29.92 "HgN/A
3:03 pm82 °FWarm.13 mph70%29.95 "HgN/A
2:03 pm82 °FWarm.16 mph66%29.98 "HgN/A
1:03 pm82 °FWarm.14 mph70%30.01 "HgN/A
12:03 pm82 °FWarm.15 mph70%30.04 "HgN/A
12:00 pm86 °FScattered clouds.5 mph70%29.95 "HgN/A
11:03 am82 °FWarm.13 mph66%30.04 "HgN/A
10:03 am81 °FWarm.8 mph66%30.04 "HgN/A
10:00 am82 °FPassing clouds.5 mph74%29.98 "HgN/A
9:03 am77 °FWarm.3 mph65%30.01 "HgN/A
8:03 am70 °FMild.1 mph78%29.98 "HgN/A
Weather by CustomWeather, © 2024

See weather overview